Campeche, Mexico

9:44 AM CDT on May 30, 2017 (GMT -0500)
Alberto Acuna Ongay

Weather History for MMCP - April, 2013

Change the Weather History Date:

Wednesday, April 24, 2013

  Actual Average Record
Temperature  
Mean Temperature 88 °F -  
Max Temperature 104 °F 91 °F 104 °F (2013)
Min Temperature 73 °F 73 °F 60 °F (1998)
Cooling Degree Days 24    
Growing Degree Days 38 (Base 50)    
Moisture  
Dew Point 72 °F    
Average Humidity 63    
Maximum Humidity 94    
Minimum Humidity 26    
Precipitation  
Precipitation 0.00 in - - ()
Sea Level Pressure  
Sea Level Pressure 29.89 in    
Wind  
Wind Speed 10 mph ()    
Max Wind Speed 17 mph    
Max Gust Speed 23 mph    
Visibility 6.5 miles    
Events      
Averages and records for this station are not official NWS values.
T = Trace of Precipitation, MM = Missing Value Source: Averaged Metar Reports

Daily Weather History Graph

Daily Weather History Graph

Search for Another Location

Airport or City:

Trip Planner

Search our weather history database for the weather conditions in past years. The results will help you decide how hot, cold, wet, or windy it might be!

Date:

Astronomy

Apr. 24, 2013 Rise Set
Actual Time 6:37 AM CDT 7:23 PM CDT
Civil Twilight 6:14 AM CDT 7:45 PM CDT
Nautical Twilight 5:47 AM CDT 8:12 PM CDT
Astronomical Twilight 5:20 AM CDT 8:39 PM CDT
Moon 6:30 PM CDT (4/24) 5:32 AM CDT (4/24)
Length of Visible Light 13h 31m
Length of Day
12h 45m
Waxing Gibbous, 98% of the Moon is Illuminated
Apr 24
Waxing Gibbous
Apr 25
Full
May 2
Last Quarter
May 9
New
May 17
First Quarter

Hourly Weather History & Observations

Time (CDT) Temp. Heat Index Dew Point Humidity Pressure Visibility Wind Dir Wind Speed Gust Speed Precip Events Conditions
1:00 AM - - 82 °F %  in 4 mi SE 13.4 mph - -  
3:50 AM 77 °F - 71 °F 75% 29.88 in 4 mi ESE 8.9 mph - -  
5:10 AM 77.0 °F - 73.4 °F 89% 29.88 in 7.0 mi ESE 17.3 mph - N/A   Clear
5:43 AM 75.2 °F - 73.4 °F 94% 29.89 in 7.0 mi East 9.2 mph - N/A   Clear
6:42 AM 75.2 °F - 73.4 °F 94% 29.91 in 7.0 mi East 9.2 mph - N/A   Clear
6:45 AM 74 °F - 71 °F 89% 29.91 in 6 mi East 2.2 mph - -  
7:41 AM 75.2 °F - 73.4 °F 94% 29.93 in 7.0 mi East 11.5 mph - N/A   Clear
8:47 AM 78.8 °F - 71.6 °F 78% 29.94 in 7.0 mi East 13.8 mph - N/A   Partly Cloudy
9:44 AM 84.2 °F 89.6 °F 71.6 °F 66% 29.95 in 7.0 mi ESE 11.5 mph - N/A   Partly Cloudy
9:48 AM 88 °F - 73 °F 52% 29.95 in 6 mi ESE 4.5 mph - -  
10:41 AM 87.8 °F 92.6 °F 69.8 °F 55% 29.95 in 7.0 mi East 11.5 mph - N/A   Partly Cloudy
11:41 AM 89.6 °F 94.7 °F 69.8 °F 52% 29.93 in 7.0 mi East 6.9 mph - N/A   Partly Cloudy
12:45 PM 99 °F - 75 °F 37% 29.91 in 6 mi East 6.7 mph - -  
12:45 PM 93.2 °F 94.9 °F 64.4 °F 38% 29.90 in 7.0 mi East 16.1 mph - N/A   Partly Cloudy
1:42 PM 95.0 °F 97.0 °F 64.4 °F 36% 29.88 in 7.0 mi East 11.5 mph 23.0 mph N/A   Partly Cloudy
2:41 PM 96.8 °F 97.1 °F 60.8 °F 30% 29.84 in 7.0 mi East 11.5 mph 23.0 mph N/A   Partly Cloudy
3:43 PM 98.6 °F 98.5 °F 59.0 °F 27% 29.82 in 7.0 mi NNE 11.5 mph - N/A   Partly Cloudy
3:48 PM 102 °F - 70 °F 26% 29.83 in 6 mi NNE 6.7 mph - -  
4:42 PM 87.8 °F 99.7 °F 77.0 °F 70% 29.81 in 7.0 mi North 11.5 mph 23.0 mph N/A   Partly Cloudy
5:40 PM 86.0 °F 95.1 °F 75.2 °F 70% 29.82 in 7.0 mi North 11.5 mph 23.0 mph N/A   Partly Cloudy
6:41 PM 86.0 °F 95.1 °F 75.2 °F 70% 29.83 in 7.0 mi North 11.5 mph 23.0 mph N/A   Partly Cloudy
6:50 PM 87 °F - 76 °F 62% 29.84 in 6 mi North 11.2 mph - -   Scattered Clouds
7:44 PM 86.0 °F 99.3 °F 78.8 °F 79% 29.84 in 7.0 mi North 11.5 mph 23.0 mph N/A   Partly Cloudy
8:42 PM 86.0 °F 95.1 °F 75.2 °F 70% 29.87 in 7.0 mi North 11.5 mph 23.0 mph N/A   Clear
9:41 PM 86.0 °F 91.8 °F 71.6 °F 62% 29.89 in 7.0 mi North 11.5 mph 23.0 mph N/A   Partly Cloudy
9:50 PM 86 °F - 71 °F 53% 29.92 in 4 mi NNE 6.7 mph - -  
10:40 PM 86.0 °F 91.8 °F 71.6 °F 62% 29.93 in 7.0 mi NNE 11.5 mph 23.0 mph N/A   Clear
11:40 PM 86.0 °F 91.8 °F 71.6 °F 62% 29.95 in 7.0 mi East 11.5 mph 23.0 mph N/A   Clear